Weather History for KLNS - April, 2012

Change the Weather History Date:

Tuesday, April 24, 2012

  Actual Average Record
Temperature  
Mean Temperature 47 °F -  
Max Temperature 59 °F 64 °F 81 °F (2001)
Min Temperature 37 °F 43 °F 29 °F (1989)
Degree Days  
Heating Degree Days 18    
Moisture  
Dew Point 29 °F    
Average Humidity 51    
Maximum Humidity 79    
Minimum Humidity 30    
Precipitation  
Precipitation 0.00 in - - ()
Sea Level Pressure  
Sea Level Pressure 29.55 in    
Wind  
Wind Speed 12 mph (WSW)    
Max Wind Speed 18 mph    
Max Gust Speed 30 mph    
Visibility 10 miles    
Events      
Averages and records for this station are not official NWS values.
T = Trace of Precipitation, MM = Missing Value Source: NWS Daily Summary

Daily Weather History Graph

Daily Weather History Graph

Search for Another Location

Airport or City:

Trip Planner

Search our weather history database for the weather conditions in past years. The results will help you decide how hot, cold, wet, or windy it might be!

Date:

Astronomy

Apr. 24, 2012 Rise Set
Actual Time 6:13 AM EDT 7:53 PM EDT
Civil Twilight 5:44 AM EDT 8:22 PM EDT
Nautical Twilight 5:09 AM EDT 8:57 PM EDT
Astronomical Twilight 4:32 AM EDT 9:34 PM EDT
Moon 8:07 AM EDT (4/24) 11:11 PM EDT (4/24)
Length of Visible Light 14h 37m
Length of Day
13h 39m
Waxing Crescent, 10% of the Moon is Illuminated
Apr 24
Waxing Crescent
Apr 29
First Quarter
May 5
Full
May 12
Last Quarter
May 20
New

Hourly Weather History & Observations

Time (EDT) Temp. Windchill Dew Point Humidity Pressure Visibility Wind Dir Wind Speed Gust Speed Precip Events Conditions
12:53 AM 39.0 °F 31.4 °F 33.1 °F 79% 29.45 in 10.0 mi WSW 12.7 mph - N/A   Partly Cloudy
1:53 AM 37.9 °F 32.7 °F 32.0 °F 79% 29.43 in 10.0 mi WSW 6.9 mph - N/A   Clear
2:53 AM 37.9 °F 30.5 °F 30.9 °F 76% 29.44 in 10.0 mi WSW 11.5 mph 17.3 mph N/A   Clear
3:53 AM 37.9 °F 30.9 °F 30.0 °F 73% 29.46 in 10.0 mi WSW 10.4 mph - N/A   Clear
4:53 AM 37.9 °F 30.5 °F 28.9 °F 70% 29.46 in 10.0 mi SW 11.5 mph - N/A   Partly Cloudy
5:53 AM 37.9 °F 30.9 °F 28.9 °F 70% 29.48 in 10.0 mi SW 10.4 mph - N/A   Clear
6:53 AM 37.9 °F 32.1 °F 30.0 °F 73% 29.50 in 10.0 mi SSW 8.1 mph - N/A   Clear
7:53 AM 42.1 °F 36.1 °F 28.9 °F 60% 29.52 in 10.0 mi SSW 10.4 mph - N/A   Clear
8:53 AM 46.0 °F 40.2 °F 28.0 °F 50% 29.53 in 10.0 mi SW 12.7 mph 20.7 mph N/A   Clear
9:53 AM 51.1 °F - 27.0 °F 39% 29.52 in 10.0 mi SW 12.7 mph 19.6 mph N/A   Clear
10:53 AM 54.0 °F - 26.1 °F 34% 29.52 in 10.0 mi WSW 17.3 mph 28.8 mph N/A   Clear
11:53 AM 55.0 °F - 25.0 °F 31% 29.52 in 10.0 mi WSW 18.4 mph 28.8 mph N/A   Clear
12:53 PM 55.9 °F - 26.1 °F 32% 29.53 in 10.0 mi West 18.4 mph 29.9 mph N/A   Mostly Cloudy
1:53 PM 55.9 °F - 26.1 °F 32% 29.53 in 10.0 mi WSW 16.1 mph 27.6 mph N/A   Scattered Clouds
2:53 PM 57.9 °F - 26.1 °F 30% 29.54 in 10.0 mi WSW 15.0 mph 24.2 mph N/A   Mostly Cloudy
3:53 PM 55.9 °F - 26.1 °F 32% 29.55 in 10.0 mi West 17.3 mph 23.0 mph N/A   Overcast
4:53 PM 55.9 °F - 28.9 °F 36% 29.57 in 10.0 mi WNW 15.0 mph - N/A   Overcast
5:53 PM 55.9 °F - 27.0 °F 33% 29.60 in 10.0 mi West 15.0 mph - N/A   Overcast
6:53 PM 53.1 °F - 27.0 °F 37% 29.62 in 10.0 mi West 12.7 mph - N/A   Mostly Cloudy
7:53 PM 51.1 °F - 27.0 °F 39% 29.65 in 10.0 mi WNW 6.9 mph - N/A   Mostly Cloudy
8:53 PM 48.9 °F - 28.9 °F 46% 29.68 in 10.0 mi NW 9.2 mph 18.4 mph N/A   Scattered Clouds
9:53 PM 46.9 °F - 30.9 °F 54% 29.70 in 10.0 mi SSW 3.5 mph - N/A   Scattered Clouds
10:53 PM 46.9 °F - 30.9 °F 54% 29.73 in 10.0 mi NNW 10.4 mph - N/A   Mostly Cloudy
11:53 PM 43.0 °F 39.5 °F 30.9 °F 62% 29.72 in 10.0 mi NNE 5.8 mph - N/A   Clear